DECAYED

STARLINK-1829, 46726 (Decayed)

Orbit data source: Space-Track

STARLINK-1829, 46726 was a payload satellite owned by SpaceX/Seattle (US) in LEO that was launched on Sun, 18 Oct 2020 UTC via an FALCON 9 launch vehicle from the Air Force Eastern Test Range (AFETR). Payload-class satellites include a variety of spacecraft equipped with specific instruments for various scientific and technological missions. These include communications satellites like Starlink; space stations such as the ISS; scientific satellites like the Hubble; Earth observation satellites from companies like Planet Labs, Umbra, and HawkEye 360; GPS; miniature CubeSats for education and research; and military/defense satellites.

Not visible in the next 10 days
Identifier
46726, 2020-073BJ
Orbit
Decayed
Country
Flag of USUS
Related business
Manufacturer
SpaceX/Seattle
Mission
Decayed Commercial Communications
Bus & Motor
STARLINK, Unknown motor
Mass
260 kg wet, ~248 kg dry
Launch date (UTC)
2020-10-18 (6 years ago)
Launch vehicle
FALCON 9
Launch site
Air Force Eastern Test Range (AFETR)
Object type
Payload
Rocket body
Debris
Shape & HBR
Box + 1 Pan, 10.1 m
Radar Cross Section
13.562 m², Large (>1 m²)

Expand to show TLE details & history
Last TLE update: 1 year ago

TLE from 1 year ago
0 STARLINK-1829
1 46726U 20073BJ  25035.28738604  .27663725  12306-4  10124-2 0  9994
2 46726  53.0185 193.7295 0009900 155.1899 273.9531 16.43431170238059
Epoch: 2025-02-04T06:53Z
TLE epoch observation values (Epoch: 2025-02-04T06:53:50.153Z)
Latitude
48.39191°
Longitude
13.03957°
Altitude
161.645 km
Speed
7.816 km/s
True Right ascension
16h 44m 46s
True Declination
48° 12' 20"
Sunlit
Object was in daylight at epoch
Visualization orbit readout
Latitude
Unknown
Longitude
Unknown
Altitude
Unknown
Speed
Unknown
Apparent Right ascension
Unknown
Apparent Declination
Unknown
Sunlit
N/A
Visualization observer readout
Local Sidereal Time
21:41:27
Azimuth
Unknown
Elevation
Unknown
Doppler factor
Unknown
Orbital elements
Apogee altitude
163.453 km
Perigee altitude
150.514 km
Semi-major axis
6,535.121 km
Eccentricity
0.00099
Inclination
53.0185°
RAAN
193.7295°
Arg. of periapsis
155.1899°
True anomaly
273.83991°
Mean anomaly
273.9531°
Eccentric anomaly
273.89651°
Mean motion
4.10831 °/min
Orbital period
87.63 mins
BSTAR
0.0010124
Loading maneuver chart data...
Computing Atmospheric mass density...

Documentation

Showing up to 5 results
|